Main page
Satellite images Climate Cyclones Lightning AirportsFAQ Languages Contact Newsletter About
Weather : Europe Africa North America South America Asia Australia-Oceania Others

, Mae Hong Son, Mae Hong Son Airport

48300

latitude: , longitude: Thailand, elevation: 19-18N m


METAR: VTCH 221000Z 16003KT 120V260 5000 -TSRA FEW023CB BKN028 27/21 Q1009